[[{"header":{"parameterUnit":"m.s-1","parameterCategory":1,"la1":30.2991,"la2":30.254,"lo1":-89.0895,"lo2":-89.0444,"dy":0.0017,"dx":0.0017,"nx":28,"ny":28,"refTime":"2024-10-19T09:00:00:Z","depth":0,"parameterNumber":2,"parameterNumberName":"U-component_of_WINDS"},"data":[0,0,0,0,0,0,0,0,0,0,0,0,0,0,0,0,0,0,0,0,0,0,0,0,0,0,0,0,0,0,0,0,0,0,0,0,0,0,0,0,0,0,0,0,0,0,0,0,0,0,0,0,0,0,0,0,0,0,-5.3666,-5.3666,0,-5.3708,-5.3709,-5.3709,-5.3571,-5.3567,-5.3563,-5.3559,-5.3606,-5.3611,-5.3616,0,0,0,0,0,0,0,0,0,0,0,0,0,-5.347,-5.3474,-5.3666,-5.3666,-5.3667,-5.3708,-5.3709,-5.3709,-5.3572,-5.3567,-5.3562,-5.3557,-5.3604,-5.361,-5.3616,0,0,0,0,0,0,0,0,0,0,0,0,0,-5.3538,-5.3475,-5.3666,-5.3603,-5.3598,-5.3708,-5.3709,-5.3709,-5.3573,-5.3567,-5.3561,-5.3555,-5.3602,-5.361,-5.3617,-5.379,0,0,-5.3641,-5.3644,0,0,0,0,0,0,0,0,-5.3534,-5.3545,-5.3612,-5.3608,-5.3602,-5.3628,-5.3656,-5.3737,-5.3575,-5.3583,-5.3559,-5.3552,-5.3619,-5.3624,-5.3646,-5.3792,-5.3794,-5.3641,-5.3646,-5.3649,-5.3652,0,0,0,0,0,0,0,-5.353,-5.3543,-5.3683,-5.3613,-5.3607,-5.3574,-5.3577,-5.3671,-5.3635,-5.3582,-5.3572,-5.3578,-5.3615,-5.3639,-5.3646,-5.3795,-5.3641,-5.3648,-5.3653,-5.3656,-5.4087,-5.4094,0,0,0,0,0,0,-5.3533,-5.354,-5.3681,-5.3684,-5.3552,-5.3583,-5.3586,-5.3626,-5.3634,-5.3629,-5.3584,-5.3572,-5.3629,-5.3638,-5.3648,-5.3852,-5.3649,-5.3657,-5.3661,-5.408,-5.4089,-5.4096,0,0,0,0,0,0,-5.3529,-5.3547,-5.3679,-5.3609,-5.3623,-5.3593,-5.3639,-5.363,-5.3654,-5.3635,-5.3629,-5.3615,-5.3624,-5.3637,-5.3756,-5.3852,-5.366,-5.3667,-5.4072,-5.4083,-5.4092,-5.4262,0,0,0,0,0,0,-5.3524,-5.3546,-5.3611,-5.3612,-5.3628,-5.3787,-5.3645,-5.3636,-5.3668,-5.3653,-5.3663,-5.3659,-5.3621,-5.3745,-5.3764,-5.3859,-5.3673,-5.4064,-5.4077,-5.4089,-5.4248,-5.4277,-5.4302,0,0,0,0,0,-5.3517,-5.3657,-5.3615,-5.3633,-5.3708,-5.3793,-5.3802,-5.3754,-5.3676,-5.3742,-5.3729,-5.3659,-5.3838,-5.3759,-5.3778,-5.3877,-5.4057,-5.4073,-5.4088,-5.4236,-5.4271,-5.4301,0,0,0,0,0,0,-5.3669,-5.3656,-5.3609,-5.3753,-5.3775,-5.3769,-5.385,-5.3793,-5.3838,-5.3822,-5.3761,-5.3765,-5.3896,-5.3898,-5.381,-5.4046,-5.3934,-5.3955,-5.404,-5.4074,-5.41,-5.4098,-5.368,0,0,0,0,0,-5.3719,-5.3788,-5.3773,-5.3902,-5.3915,-5.3881,-5.3916,-5.3877,-5.3898,-5.3907,-5.3903,-5.3927,-5.3989,-5.4031,-5.4086,-5.4247,-5.4249,-5.4325,-5.4352,-5.4374,-5.4393,-5.448,-5.4515,-5.4147,-5.4146,-5.4146,0,0,-5.3824,-5.3825,-5.3873,-5.3933,-5.3945,-5.4019,-5.389,-5.3973,-5.4028,-5.392,-5.4033,-5.4031,-5.4054,-5.4195,-5.4257,-5.4201,-5.4495,-5.4394,-5.4411,-5.4418,-5.4499,-5.4534,-5.4565,-5.4157,-5.4155,-5.4153,0,0,-5.4053,-5.406,-5.4169,-5.4184,-5.4204,-5.418,-5.4207,-5.421,-5.4205,-5.4316,-5.4237,-5.4302,-5.4409,-5.4429,-5.4453,-5.469,-5.4628,-5.471,-5.4852,-5.4938,-5.4967,-5.4992,-5.5079,-5.5111,-5.4728,-5.4729,-5.4729,0,-5.4181,-5.4289,-5.4232,-5.4322,-5.4351,-5.4255,-5.4366,-5.4383,-5.4422,-5.4445,-5.4381,-5.4514,-5.4522,-5.4668,-5.4726,-5.4748,-5.4778,-5.471,-5.4967,-5.4992,-5.5015,-5.5097,-5.513,-5.4739,-5.4738,-5.4737,-5.4736,0,-5.4446,-5.4522,-5.4607,-5.4646,-5.4685,-5.4785,-5.4745,-5.4791,-5.4749,-5.4733,-5.4849,-5.4855,-5.4911,-5.4942,-5.4902,-5.5083,-5.5048,-5.4977,-5.4864,-5.5061,-5.5137,-5.5168,-5.4753,-5.475,-5.4747,-5.4744,0,0,-5.4773,-5.4779,-5.4812,-5.4829,-5.4844,-5.4903,-5.4998,-5.5052,-5.5094,-5.5124,-5.5204,-5.5297,-5.5231,-5.5259,-5.522,-5.5295,-5.5485,-5.5214,-5.5213,-5.5266,-5.5688,-5.5744,-5.5781,-5.5443,-5.5448,-5.5453,-5.5687,0,-5.5,-5.5164,-5.5116,-5.5281,-5.5352,-5.5262,-5.5345,-5.5365,-5.5352,-5.5411,-5.5397,-5.5465,-5.5372,-5.5388,-5.5458,-5.5447,-5.557,-5.5429,-5.552,-5.5523,-5.5519,-5.5821,-5.5879,-5.61,-5.5716,-5.5721,-5.5725,0,-5.5287,-5.5328,-5.55,-5.5505,-5.5532,-5.5609,-5.5655,-5.5712,-5.5732,-5.5718,-5.5749,-5.5695,-5.5791,-5.5676,-5.5809,-5.5715,-5.5749,-5.5749,-5.5756,-5.5765,-5.5638,-5.584,-5.6169,-5.6203,-5.5771,-5.5767,-5.5764,0,-5.5512,-5.5609,-5.5725,-5.5742,-5.575,-5.5806,-5.5812,-5.5826,-5.5862,-5.5903,-5.5926,-5.5977,-5.6007,-5.6049,-5.6011,-5.593,-5.615,-5.6032,-5.6143,-5.6145,-5.6196,-5.6194,-5.6538,-5.6214,-5.6213,-5.6213,-5.6212,0,-5.5772,-5.5882,-5.5826,-5.5898,-5.6018,-5.5963,-5.6084,-5.608,-5.6093,-5.6164,-5.6088,-5.6156,-5.61,-5.6164,-5.6135,-5.6251,-5.6264,-5.6256,-5.6248,-5.6265,-5.6266,-5.6288,-5.6273,-5.6221,-5.6219,-5.6218,-5.6216,0,-5.6045,-5.6011,-5.6132,-5.6129,-5.6131,-5.6221,-5.6219,-5.6286,-5.6267,-5.6357,-5.6375,-5.6347,-5.6418,-5.6384,-5.6458,-5.6438,-5.6589,-5.6558,-5.6582,-5.6575,-5.6689,-5.668,-5.7062,-5.711,-5.6753,-5.6756,-5.6759,0,-5.6214,-5.6296,-5.6302,-5.6343,-5.6355,-5.6422,-5.6458,-5.6406,-5.6448,-5.6478,-5.6542,-5.6606,-5.6655,-5.6773,-5.676,-5.6817,-5.6789,-5.6918,-5.6797,-5.6812,-5.6794,-5.6791,-5.68,-5.6944,-5.6948,-5.6951,-5.6954,0,-5.6519,-5.6499,-5.6553,-5.6603,-5.6648,-5.6685,-5.6716,-5.6754,-5.6703,-5.6754,-5.6825,-5.6863,-5.6938,-5.7004,-5.7053,-5.706,-5.7001,-5.6992,-5.7021,-5.7041,-5.7052,-5.705,-5.6651,-5.6984,-5.6981,-5.6979,-5.6977,-5.6976,-5.6747,-5.6816,-5.6832,-5.6896,-5.6913,-5.6943,-5.7007,-5.6996,-5.7054,-5.7111,-5.7077,-5.7161,-5.7181,-5.7241,-5.7257,-5.7323,-5.7271,-5.7313,-5.7324,-5.7336,-5.7353,-5.704,-5.7331,-5.733,-5.7329,-5.7329,-5.7328,0,-5.705,-5.7056,-5.7115,-5.716,-5.721,-5.7147,-5.7177,-5.7225,-5.73,-5.7322,-5.7372,-5.7455,-5.7518,-5.751,-5.7568,-5.7623,-5.7597,-5.7641,-5.7637,-5.7641,-5.7394,-5.7364,-5.7661,-5.7661,-5.7661,-5.7661,-5.7661,-5.766,-5.7214,-5.7329,-5.7311,-5.7434,-5.7438,-5.752,-5.7543,-5.7572,-5.7589,-5.7685,-5.7737,-5.7731,-5.7742,-5.7801,-5.7857,-5.7853,-5.7879,-5.7934,-5.792,-5.7691,-5.7658,-5.7626,-5.7598,-5.7939,-5.7939,-5.8161,-5.8163,-5.8165]},{"header":{"parameterUnit":"m.s-1","parameterCategory":1,"la1":30.2991,"la2":30.254,"lo1":-89.0895,"lo2":-89.0444,"dy":0.0017,"dx":0.0017,"nx":28,"ny":28,"refTime":"2024-10-19T09:00:00:Z","depth":0,"parameterNumber":3,"parameterNumberName":"V-component_of_WINDS"},"data":[0,0,0,0,0,0,0,0,0,0,0,0,0,0,0,0,0,0,0,0,0,0,0,0,0,0,0,0,0,0,0,0,0,0,0,0,0,0,0,0,0,0,0,0,0,0,0,0,0,0,0,0,0,0,0,0,0,0,-3.3012,-3.3012,0,-3.2996,-3.2996,-3.2996,-3.2936,-3.2935,-3.2934,-3.2932,-3.2917,-3.2918,-3.2918,0,0,0,0,0,0,0,0,0,0,0,0,0,-3.2992,-3.2992,-3.3012,-3.3012,-3.3012,-3.2996,-3.2996,-3.2996,-3.2937,-3.2935,-3.2933,-3.2932,-3.2916,-3.2917,-3.2918,0,0,0,0,0,0,0,0,0,0,0,0,0,-3.2991,-3.2992,-3.3012,-3.298,-3.2977,-3.2996,-3.2996,-3.2996,-3.2937,-3.2935,-3.2933,-3.2931,-3.2916,-3.2917,-3.2919,-3.2967,0,0,-3.2922,-3.2923,0,0,0,0,0,0,0,0,-3.2991,-3.2991,-3.2985,-3.2983,-3.2979,-3.2966,-3.2983,-3.2986,-3.2937,-3.2952,-3.2932,-3.293,-3.2935,-3.2934,-3.2936,-3.2966,-3.2966,-3.2923,-3.2923,-3.2924,-3.2924,0,0,0,0,0,0,0,-3.2991,-3.2992,-3.3006,-3.2985,-3.2982,-3.2967,-3.2964,-3.2983,-3.2955,-3.2951,-3.2947,-3.2945,-3.2933,-3.2935,-3.2935,-3.2965,-3.2923,-3.2924,-3.2924,-3.2925,-3.3033,-3.3035,0,0,0,0,0,0,-3.2995,-3.2992,-3.3006,-3.3005,-3.298,-3.2969,-3.2966,-3.2972,-3.2955,-3.295,-3.2947,-3.2943,-3.2934,-3.2934,-3.2934,-3.2989,-3.2924,-3.2925,-3.2926,-3.3031,-3.3034,-3.3036,0,0,0,0,0,0,-3.2995,-3.2997,-3.3007,-3.2998,-3.2998,-3.2971,-3.2979,-3.2973,-3.2975,-3.2952,-3.2947,-3.2954,-3.2932,-3.2933,-3.2959,-3.2988,-3.2926,-3.2927,-3.3029,-3.3032,-3.3035,-3.3099,0,0,0,0,0,0,-3.2995,-3.2997,-3.3016,-3.2998,-3.2998,-3.3032,-3.2981,-3.2974,-3.2977,-3.2971,-3.2957,-3.2953,-3.2931,-3.2957,-3.296,-3.2988,-3.2928,-3.3026,-3.303,-3.3034,-3.3095,-3.3104,-3.3113,0,0,0,0,0,-3.2994,-3.3035,-3.3017,-3.3019,-3.3021,-3.3034,-3.3034,-3.3007,-3.298,-3.2998,-3.2983,-3.2954,-3.2984,-3.2961,-3.2963,-3.2992,-3.3024,-3.3029,-3.3034,-3.309,-3.3102,-3.3113,0,0,0,0,0,0,-3.3057,-3.3032,-3.3012,-3.3048,-3.3044,-3.3024,-3.3046,-3.3021,-3.3024,-3.3018,-3.2984,-3.2982,-3.3013,-3.3005,-3.2979,-3.3037,-3.2999,-3.3005,-3.3041,-3.3053,-3.3062,-3.3063,-3.2929,0,0,0,0,0,-3.3075,-3.3088,-3.3065,-3.3099,-3.3098,-3.3073,-3.3077,-3.3057,-3.3051,-3.3048,-3.3035,-3.3031,-3.3039,-3.3045,-3.3052,-3.3093,-3.3089,-3.3114,-3.3123,-3.3131,-3.3136,-3.3156,-3.3167,-3.3052,-3.3052,-3.3052,0,0,-3.3112,-3.31,-3.3111,-3.3112,-3.3106,-3.3119,-3.3071,-3.3088,-3.3098,-3.3051,-3.3075,-3.3065,-3.3058,-3.3092,-3.3106,-3.3086,-3.3167,-3.3137,-3.3143,-3.3144,-3.3162,-3.3173,-3.3183,-3.3055,-3.3054,-3.3054,0,0,-3.3187,-3.318,-3.3207,-3.3202,-3.3193,-3.3175,-3.3182,-3.3166,-3.3157,-3.3181,-3.3145,-3.3157,-3.3172,-3.3168,-3.3168,-3.324,-3.3213,-3.3243,-3.3291,-3.3311,-3.332,-3.3328,-3.3353,-3.3363,-3.3249,-3.3249,-3.3249,0,-3.3235,-3.3254,-3.3224,-3.3243,-3.3244,-3.3202,-3.3229,-3.3225,-3.3219,-3.3221,-3.3199,-3.3216,-3.3209,-3.324,-3.3258,-3.326,-3.3266,-3.3245,-3.3321,-3.3329,-3.3336,-3.336,-3.3369,-3.3252,-3.3252,-3.3252,-3.3251,0,-3.3313,-3.3327,-3.335,-3.3344,-3.3348,-3.3371,-3.3344,-3.3352,-3.3331,-3.3315,-3.3339,-3.3328,-3.3331,-3.3337,-3.3317,-3.3366,-3.3354,-3.3327,-3.3288,-3.3351,-3.3373,-3.3382,-3.3258,-3.3256,-3.3255,-3.3254,0,0,-3.3428,-3.3404,-3.3413,-3.341,-3.3397,-3.3407,-3.3427,-3.343,-3.3437,-3.3434,-3.345,-3.3464,-3.3438,-3.3438,-3.3417,-3.3435,-3.3492,-3.3406,-3.3405,-3.3422,-3.3545,-3.3565,-3.3576,-3.3474,-3.3476,-3.3477,-3.3545,0,-3.3499,-3.3532,-3.3505,-3.3544,-3.3556,-3.3515,-3.3533,-3.3527,-3.3513,-3.3521,-3.3506,-3.3516,-3.3482,-3.3482,-3.3497,-3.3482,-3.3517,-3.3477,-3.3489,-3.349,-3.3492,-3.3587,-3.3609,-3.3674,-3.3554,-3.3555,-3.3556,0,-3.3586,-3.3586,-3.3626,-3.3609,-3.3613,-3.363,-3.3629,-3.3638,-3.3629,-3.3618,-3.3618,-3.3591,-3.361,-3.3572,-3.3597,-3.3571,-3.3574,-3.3567,-3.3569,-3.3569,-3.3527,-3.359,-3.3694,-3.3704,-3.3569,-3.3568,-3.3567,0,-3.3665,-3.3676,-3.37,-3.3699,-3.368,-3.3692,-3.3685,-3.3674,-3.3677,-3.3677,-3.3679,-3.3681,-3.3682,-3.3684,-3.3659,-3.3634,-3.3688,-3.3647,-3.3679,-3.3679,-3.3692,-3.3691,-3.3798,-3.3695,-3.3695,-3.3694,-3.3694,0,-3.3747,-3.3773,-3.3735,-3.3751,-3.3778,-3.3746,-3.3774,-3.3763,-3.3754,-3.3766,-3.3731,-3.3744,-3.371,-3.3719,-3.3699,-3.3723,-3.3724,-3.3715,-3.371,-3.3718,-3.3719,-3.372,-3.3715,-3.3697,-3.3696,-3.3696,-3.3695,0,-3.384,-3.3816,-3.384,-3.382,-3.3815,-3.3836,-3.3819,-3.3832,-3.3816,-3.3831,-3.3833,-3.3808,-3.3816,-3.3791,-3.3796,-3.3783,-3.3817,-3.3804,-3.382,-3.3816,-3.3848,-3.3845,-3.3958,-3.3971,-3.3861,-3.3862,-3.3863,0,-3.3894,-3.3913,-3.3894,-3.3899,-3.3894,-3.3903,-3.3905,-3.3875,-3.3879,-3.387,-3.3885,-3.389,-3.3892,-3.3908,-3.389,-3.3893,-3.388,-3.3919,-3.388,-3.3888,-3.388,-3.3879,-3.388,-3.3927,-3.3929,-3.393,-3.3931,0,-3.3992,-3.3979,-3.3983,-3.3984,-3.3987,-3.3987,-3.3983,-3.399,-3.3957,-3.3963,-3.3971,-3.3973,-3.3977,-3.3983,-3.3982,-3.3974,-3.3947,-3.3943,-3.395,-3.3959,-3.3967,-3.3963,-3.3841,-3.3941,-3.394,-3.3939,-3.3938,-3.3938,-3.4066,-3.4081,-3.407,-3.4076,-3.407,-3.4067,-3.4078,-3.4063,-3.4068,-3.4069,-3.4051,-3.4062,-3.4053,-3.4048,-3.4043,-3.4052,-3.4034,-3.4045,-3.4047,-3.405,-3.4056,-3.3966,-3.4052,-3.4051,-3.4051,-3.4051,-3.4051,0,-3.4162,-3.4152,-3.4158,-3.4154,-3.4159,-3.4132,-3.4127,-3.4133,-3.4143,-3.4136,-3.4139,-3.4148,-3.4153,-3.4135,-3.4137,-3.4148,-3.4135,-3.4149,-3.4148,-3.4147,-3.4072,-3.4065,-3.4159,-3.4159,-3.4159,-3.4159,-3.4159,-3.4159,-3.4212,-3.4235,-3.422,-3.4239,-3.4229,-3.424,-3.4239,-3.4236,-3.4231,-3.4241,-3.4245,-3.4233,-3.4222,-3.4223,-3.4226,-3.4221,-3.4223,-3.4242,-3.4232,-3.4163,-3.4152,-3.4142,-3.4135,-3.4242,-3.4243,-3.4306,-3.4306,-3.4307]}]]